QTR329 KLAX-KBED

Flight info

Callsign QTR329
Flight time N/A
Altitude 39000
Route ORCKA5 LAS J146 DVC HBU LNK IOW GIJ BENJO J554 CRL COHOW J554 SURLY VIEEW Q82 PONCT EEGUL ZELKA2
Aircraft A333/H-SDE3GHIJ2J3J5M1RVWXY/LB2D1

Departure

Time 2026-04-21 23:44
Airport Los Angeles International Airport (KLAX)

Arrival

Time N/A
Airport Laurence G Hanscom Field (KBED)
Time Latitude Longitude Altitude Speed Heading
2026-04-21 23:31 33.94208 -118.39542 129 ft 0 kts 269°
2026-04-21 23:34 33.94208 -118.39540 129 ft 0 kts 274°
2026-04-21 23:35 33.94210 -118.39521 124 ft 3 kts 233°
2026-04-21 23:35 33.94224 -118.39506 124 ft 3 kts 189°
2026-04-21 23:35 33.94227 -118.39505 124 ft 0 kts 184°
2026-04-21 23:37 33.94181 -118.39506 128 ft 10 kts 181°
2026-04-21 23:38 33.94156 -118.39503 126 ft 0 kts 171°
2026-04-21 23:38 33.94120 -118.39500 125 ft 14 kts 181°
2026-04-21 23:38 33.94035 -118.39513 125 ft 11 kts 192°
2026-04-21 23:39 33.93953 -118.39510 127 ft 9 kts 149°
2026-04-21 23:39 33.93938 -118.39420 125 ft 19 kts 83°
2026-04-21 23:39 33.93961 -118.39199 127 ft 31 kts 84°
2026-04-21 23:39 33.93986 -118.38943 127 ft 30 kts 83°
2026-04-21 23:40 33.94010 -118.38695 125 ft 30 kts 83°
2026-04-21 23:40 33.94034 -118.38473 126 ft 23 kts 84°
2026-04-21 23:40 33.94042 -118.38385 124 ft 9 kts 86°
2026-04-21 23:40 33.94042 -118.38374 125 ft 0 kts 95°
2026-04-21 23:41 33.94041 -118.38368 125 ft 0 kts 97°
2026-04-21 23:41 33.94041 -118.38361 124 ft 8 kts 89°
2026-04-21 23:41 33.94055 -118.38270 124 ft 14 kts 80°
2026-04-21 23:42 33.94069 -118.38132 129 ft 18 kts 84°
2026-04-21 23:42 33.94074 -118.38040 127 ft 0 kts 102°
2026-04-21 23:42 33.94049 -118.38012 127 ft 12 kts 152°
2026-04-21 23:43 33.93996 -118.38006 125 ft 3 kts 219°
2026-04-21 23:43 33.93976 -118.38052 125 ft 11 kts 253°
2026-04-21 23:43 33.93947 -118.38319 128 ft 67 kts 264°
2026-04-21 23:43 33.93864 -118.39162 127 ft 134 kts 263°
2026-04-21 23:44 33.93759 -118.40482 350 ft 177 kts 261°
2026-04-21 23:44 33.93566 -118.42084 855 ft 206 kts 257°
2026-04-21 23:44 33.93280 -118.43860 1738 ft 223 kts 258°
2026-04-21 23:44 33.92921 -118.45730 2686 ft 234 kts 256°
2026-04-21 23:45 33.92478 -118.47665 3459 ft 253 kts 253°
2026-04-21 23:45 33.91499 -118.51415 4106 ft 211 kts 250°
2026-04-21 23:45 33.91023 -118.53047 4643 ft 208 kts 250°
2026-04-21 23:46 33.90722 -118.54158 5048 ft 214 kts 251°
2026-04-21 23:46 33.90289 -118.55909 5671 ft 223 kts 252°
2026-04-21 23:46 33.89889 -118.57750 6284 ft 233 kts 254°
2026-04-21 23:46 33.89529 -118.59701 6872 ft 244 kts 256°
2026-04-21 23:47 33.89203 -118.61755 7449 ft 255 kts 252°
2026-04-21 23:47 33.88227 -118.63516 8052 ft 264 kts 216°
2026-04-21 23:47 33.86439 -118.64129 8661 ft 282 kts 180°
2026-04-21 23:47 33.84545 -118.63282 9303 ft 307 kts 147°
2026-04-21 23:48 33.83079 -118.60255 10176 ft 339 kts 102°
2026-04-21 23:48 33.83103 -118.58316 10549 ft 352 kts 80°
2026-04-21 23:48 33.84154 -118.55621 11079 ft 365 kts 54°
2026-04-21 23:48 33.85711 -118.53151 11554 ft 377 kts 52°
2026-04-21 23:49 33.87133 -118.50433 11910 ft 393 kts 66°
2026-04-21 23:49 33.88336 -118.47420 12356 ft 406 kts 62°
2026-04-21 23:49 33.89682 -118.44357 12666 ft 421 kts 60°
2026-04-21 23:49 33.91258 -118.41328 12982 ft 432 kts 53°
2026-04-21 23:50 33.93058 -118.38400 13490 ft 437 kts 51°
2026-04-21 23:50 33.94899 -118.35463 14097 ft 440 kts 51°
2026-04-21 23:50 33.96745 -118.32509 14648 ft 442 kts 51°
2026-04-21 23:50 33.98595 -118.29538 15287 ft 442 kts 51°
2026-04-21 23:51 34.00437 -118.26566 15928 ft 443 kts 51°
2026-04-21 23:51 34.02273 -118.23593 16321 ft 451 kts 51°
2026-04-21 23:51 34.04151 -118.20545 16814 ft 455 kts 51°
2026-04-21 23:51 34.06049 -118.17460 17282 ft 462 kts 51°
2026-04-21 23:52 34.07974 -118.14323 17710 ft 467 kts 51°
2026-04-21 23:52 34.09907 -118.11167 18326 ft 467 kts 51°
2026-04-21 23:52 34.11836 -118.08011 18913 ft 467 kts 51°
2026-04-21 23:52 34.13762 -118.04860 19503 ft 465 kts 51°
2026-04-21 23:53 34.15685 -118.01733 20142 ft 463 kts 51°
2026-04-21 23:53 34.17602 -117.98611 20705 ft 463 kts 51°
2026-04-21 23:53 34.19524 -117.95480 21273 ft 463 kts 51°
2026-04-21 23:53 34.21442 -117.92354 21819 ft 464 kts 51°
2026-04-21 23:54 34.23358 -117.89219 22382 ft 463 kts 51°
2026-04-21 23:54 34.25269 -117.86078 22914 ft 464 kts 51°
2026-04-21 23:54 34.27178 -117.82946 23524 ft 462 kts 51°
2026-04-21 23:54 34.29088 -117.79809 24032 ft 462 kts 51°
2026-04-21 23:55 34.30973 -117.76713 24374 ft 463 kts 51°
2026-04-21 23:55 34.32906 -117.73556 24580 ft 471 kts 51°
2026-04-21 23:55 34.34874 -117.70343 24742 ft 479 kts 51°
2026-04-21 23:55 34.36874 -117.67071 24900 ft 488 kts 51°
2026-04-21 23:56 34.38915 -117.63741 25056 ft 495 kts 51°
2026-04-21 23:56 34.40982 -117.60372 25178 ft 503 kts 51°
2026-04-21 23:56 34.43087 -117.56943 25312 ft 511 kts 51°
2026-04-21 23:56 34.45238 -117.53463 25467 ft 518 kts 51°
2026-04-21 23:57 34.47417 -117.49958 25691 ft 523 kts 51°
2026-04-21 23:57 34.49608 -117.46434 26032 ft 524 kts 51°
2026-04-21 23:57 34.51804 -117.42919 26436 ft 524 kts 51°
2026-04-21 23:57 34.54009 -117.39394 26820 ft 524 kts 51°
2026-04-21 23:58 34.56214 -117.35868 27197 ft 524 kts 51°
2026-04-21 23:58 34.58420 -117.32341 27578 ft 525 kts 51°
2026-04-21 23:58 34.60627 -117.28812 28001 ft 525 kts 51°